Location: *
(31.2983°S, 151.4094°E)
Time: 17:59:18
(UTC+00:00)

Unknown - Pass Details

Date: 25 August 2019
Orbit: 304 x 341 km, 53.0° (Epoch: 14 October)

Event Time Altitude Azimuth Distance (km) Brightness Sun altitude
Exits shadow 19:47:07 10° 263° (W) 1,233 4.7 -7.5°
Maximum altitude 19:49:00 17° 306° (NW) 925 4.4 -7.1°
Drops below altitude 10° 19:50:56 10° 351° (N) 1,249 5.5 -6.7°
Sets 19:53:19 0° 12° (NNE) 2,087 6.9 -6.2°
